Regional Weather Roundup
Issued by NWS

Home | Current Version | Previous Version | Graphics & Text | Print | Product List | Glossary On
Versions: 1 2 3 4 5 6 7 8 9 10 11 12 13 14 15 16 17 18 19 20 21 22 23 24 25 26 27 28 29 30 31 32 33 34 35 36 37 38 39 40 41 42 43 44 45 46 47 48
000
ASUS45 KTFX 270810
RWRMT
MONTANA REGIONAL WEATHER ROUNDUP
NATIONAL WEATHER SERVICE GREAT FALLS MT
200 AM MDT MON JUL 27 2015

NOTE: "FAIR" INDICATES FEW OR NO CLOUDS BELOW 12000 FEET WITH NO
SIGNIFICANT WEATHER AND/OR OBSTRUCTIONS TO VISIBILITY.

MTZ001>007-043-270900-
WEST OF THE DIVIDE

CITY           SKY/WX    TMP DP  RH WIND       PRES   REMARKS
KALISPELL      CLOUDY    55  38  52 CALM      29.95R
MISSOULA       CLOUDY    61  41  47 NW13      29.94F
BUTTE          CLOUDY    56  43  61 CALM      29.98R
MULLAN PASS    CLOUDY    45  34  65 NW6       30.04F
EUREKA           N/A     52  43  71 CALM      29.97R
HAMILTON         N/A     57  50  77 W6        29.97R
LIBBY            N/A     48  39  71 CALM      29.97S
PLAINS           N/A     56  41  57 CALM      29.96S
RONAN            N/A     56  46  69 CALM      30.00S
THOMPSON FALLS   N/A     56  42  59 CALM      30.01R
$$

MTZ008-052>055-270900-
SOUTHWEST MONTANA

CITY           SKY/WX    TMP DP  RH WIND       PRES   REMARKS
BOZEMAN        PTCLDY    54  49  83 W7        29.88R
DILLON         MOCLDY    61  45  55 E7        29.91R
W YELLOWSTONE  PTCLDY    46  41  81 W5        29.95S
TWIN BRIDGES     N/A     64  42  44 N14       29.89R
$$

MTZ009-010-012-014-046-048-049-054-270900-
EAST SLOPES AND CENTRAL MONTANA

CITY           SKY/WX    TMP DP  RH WIND       PRES   REMARKS
CUT BANK       CLOUDY    55  42  61 NW13      29.94F
GREAT FALLS    MOCLDY    57  53  86 NE3       29.92F
MALMSTROM AFB  CLOUDY    58  53  84 N7        29.92F
HELENA         CLOUDY    60  50  69 NW6       29.89F
CONRAD           N/A     57  54  90 CALM      29.96F
$$

MTZ011-013-016-021-045-047-050-051-270900-
NORTH CENTRAL MONTANA

CITY           SKY/WX    TMP DP  RH WIND       PRES   REMARKS
HAVRE          LGT RAIN  60  59  96 SW3       29.89F
LEWISTOWN      PTCLDY    57  54  89 SW5       29.92F
CHINOOK          N/A     61  61 100 CALM      29.90F
FORT BENTON      N/A     63  59  88 CALM      29.91S
$$

MTZ017>020-022>027-061-062-270900-
NORTHEAST MONTANA

CITY           SKY/WX    TMP DP  RH WIND       PRES   REMARKS
GLASGOW        PTCLDY    63  56  78 N24G30    29.78F
JORDAN           N/A     68  53  58 N14       29.75F
SIDNEY         PTCLDY   N/A N/A N/A N3        29.77F
WOLF POINT     MOCLDY    70  61  73 NE9       29.79R
MALTA            N/A     64  56  75 NW8       29.81F
PLENTYWOOD       N/A     68  61  77 NE7       29.80F
POPLAR           N/A     66  61  82 N7        29.80R
SCOBEY           N/A     66  53  63 W7        29.90R
$$

MTZ028>42-056>058-270900-
SOUTHCENTRAL AND SOUTHEAST MONTANA

CITY           SKY/WX    TMP DP  RH WIND       PRES   REMARKS
BAKER          MOCLDY    69  52  54 SE22G32   29.81F
BILLINGS       PTCLDY    66  48  52 N15       29.80R
LIVINGSTON     PTCLDY    63  49  60 N5        29.88S
MILES CITY     PTCLDY    76  60  57 SE12      29.73R
EKALAKA          N/A     69  55  60 E20       29.82F
FORSYTH          N/A     77  59  53 E8        29.69F
LAUREL           N/A     65  46  50 NW17      29.81R
ROUNDUP          N/A     64  50  60 N8        29.75F
$$

REGIONAL REPORTS...DAKOTAS

CITY           SKY/WX    TMP DP  RH WIND       PRES   REMARKS
WILLISTON      PTCLDY    66  58  75 NE8       29.80F
MINOT          CLOUDY    62  59  90 NE6       29.83S
DICKINSON      MOCLDY    63  54  72 S9        29.81F
BEACH          FAIR      63  59  88 SE7       29.81S
CROSBY         FAIR      63  63 100 E8        29.84F
BISMARCK       CLOUDY    72  55  55 SE24G30   29.77F
GRAND FORKS    PTCLDY    66  64  93 S3        29.86R
FARGO          PTCLDY    69  65  86 SE6       29.89F
BUFFALO SD       N/A     65  54  67 SE14      29.79F
RAPID CITY     PTCLDY    70  56  61 E14       29.90S
$$

REGIONAL REPORTS...WYOMING/IDAHO/WASHINGTON

CITY           SKY/WX    TMP DP  RH WIND       PRES   REMARKS
GILLETTE       CLEAR     70  55  59 SE20G28   29.80F
SHERIDAN       CLEAR     59  47  64 CALM      29.77F
BUFFALO WY     CLEAR     64  40  41 W7        29.84F
CODY           CLEAR     64  37  36 SW5       29.84F
YELLOWSTONE LA   N/A     43  38  82 W3        30.05F
IDAHO FALLS    PTCLDY    61  46  57 SW6       29.83R
SALMON         MOCLDY    64  45  48 N20G25    29.87R
BOISE          CLOUDY    66  46  48 NW14      29.91S
SPOKANE        CLOUDY    61  38  42 W3        29.95R
$$

REGIONAL REPORTS...ALBERTA

CITY           SKY/WX    TMP DP  RH WIND       PRES   REMARKS
EDMONTON       CLEAR     55  48  76 W6        29.89S
CALGARY        PTCLDY    50  43  76 VRB2      29.95F
LETHBRIDGE     PTCLDY    52  48  87 W7        29.95R
MEDICINE HAT   CLEAR     57  48  72 W12       29.85S
WATERTON GATE    N/A     43  39  87 S2          N/A
CARDSTON         N/A     50  45  81 W5          N/A
MILK RIVER       N/A     54  46  76 NW13        N/A
ONEFOUR          N/A     59  57  94 SE10        N/A
$$

REGIONAL REPORTS...SASKATCHEWAN

CITY           SKY/WX    TMP DP  RH WIND       PRES   REMARKS
SWIFT CURRENT  MOCLDY    61  52  72 SE10      29.87F
REGINA         CLOUDY    64  52  63 NE7       29.86F
SASKATOON      MOCLDY    57  52  82 E3        29.89R
CYPRESS HILLS    N/A     55  52  88 S9          N/A
VAL MARIE        N/A     61  57  88 NE5         N/A
ROCKGLEN         N/A     61  55  82 W8          N/A
$$


USA.gov is the U.S. government's official web portal to all federal, state and local government web resources and services.